Location: Starhoo Observatory
(41.8578°N, 70.9669°W)
Time: 21:23:15
(UTC-04:00)

ISS - Visible Passes

Search period start: 29 August 2016 00:00
Search period end: 08 September 2016 00:00
Orbit: 402 x 406 km, 51.6° (Epoch: 29 August)

Date Brightness Start Highest point End Pass type
(mag) Time Alt. Az. Time Alt. Az. Time Alt. Az.
04 Sep -1.9 05:34:24 10° SSW 05:37:25 35° SE 05:40:28 10° ENE visible
05 Sep -1.0 04:43:22 13° S 04:45:07 19° SE 04:47:31 10° E visible
06 Sep -3.3 05:26:00 13° SW 05:28:51 87° SE 05:32:09 10° NE visible
07 Sep -2.6 04:35:53 39° S 04:36:26 44° SE 04:39:35 10° ENE visible
